Terminal Aerodrome Forecast
Issued by NWS Bismarck, ND

Home | Current Version | Previous Version | Text Only | Print | Product List | Glossary Off
Versions: 1 2 3 4 5 6 7 8 9 10 11 12 13 14 15 16 17 18

000
FTUS43 KBIS 241700
TAFISN
TAF
KISN 241738Z 2418/2518 06007KT 1SM -SN BKN020 OVC025
     FM242200 09005KT 3SM -SN BKN015 OVC025
     FM250400 08009KT 1SM -SN BR OVC015
     FM251000 04009KT 4SM -SHSN BKN025 OVC035=

USA.gov is the U.S. government's official web portal to all federal, state and local government web resources and services.